H1 CPF 2 NER 2022 5 29 9 149 01 glonass141 H2 1908801 9141 44850 2022 5 29 0 0 0 2022 6 1 23 45 0 900 1 1 0 0 0 1 H9 10 0 59728 0.00000 0 -11347946.593 -22157175.695 5613261.207 10 0 59728 900.00000 0 -10972922.456 -21348646.634 8674490.145 10 0 59728 1800.00000 0 -10309031.606 -20285695.563 11567500.972 10 0 59728 2700.00000 0 -9336604.183 -19023829.931 14236290.182 10 0 59728 3600.00000 0 -8048219.504 -17623309.634 16629239.300 10 0 59728 4500.00000 0 -6449267.295 -16146584.800 18700100.515 10 0 59728 5400.00000 0 -4557976.844 -14655665.577 20408876.458 10 0 59728 6300.00000 0 -2404912.793 -13209533.265 21722578.625 10 0 59728 7200.00000 0 -31958.211 -11861699.910 22615851.292 10 0 59728 8100.00000 0 2509173.617 -10658016.804 23071450.366 10 0 59728 9000.00000 0 5158838.208 -9634821.765 23080569.163 10 0 59728 9900.00000 0 7851692.463 -8817501.047 22643005.611 10 0 59728 10800.00000 0 10519170.316 -8219524.553 21767168.087 10 0 59728 11700.00000 0 13092100.904 -7841993.754 20469919.582 10 0 59728 12600.00000 0 15503362.712 -7673720.759 18776262.588 10 0 59728 13500.00000 0 17690465.492 -7691835.287 16718869.690 10 0 59728 14400.00000 0 19597954.220 -7862894.564 14337467.471 10 0 59728 15300.00000 0 21179536.068 -8144450.414 11678084.105 10 0 59728 16200.00000 0 22399842.318 -8487008.632 8792173.507 10 0 59728 17100.00000 0 23235751.648 -8836299.087 5735631.492 10 0 59728 18000.00000 0 23677218.906 -9135761.586 2567721.851 10 0 59728 18900.00000 0 23727573.833 -9329142.893 -650067.695 10 0 59728 19800.00000 0 23403276.148 -9363094.983 -3855217.900 10 0 59728 20700.00000 0 22733136.165 -9189663.954 -6985395.430 10 0 59728 21600.00000 0 21757032.785 -8768563.036 -9979671.295 10 0 59728 22500.00000 0 20524182.093 -8069131.739 -12779715.743 10 0 59728 23400.00000 0 19091029.088 -7071896.241 -15330945.305 10 0 59728 24300.00000 0 17518851.360 -5769662.678 -17583598.520 10 0 59728 25200.00000 0 15871175.946 -4168094.789 -19493718.261 10 0 59728 26100.00000 0 14211118.759 -2285749.298 -21024020.378 10 0 59728 27000.00000 0 12598759.360 -153565.472 -22144630.856 10 0 59728 27900.00000 0 11088662.275 2186171.428 -22833676.409 10 0 59728 28800.00000 0 9727649.874 4681350.532 -23077716.443 10 0 59728 29700.00000 0 8552920.901 7271976.730 -22872007.696 10 0 59728 30600.00000 0 7590593.869 9892452.249 -22220596.302 10 0 59728 31500.00000 0 6854736.404 12474103.013 -21136235.516 10 0 59728 32400.00000 0 6346920.618 14947844.079 -19640130.990 10 0 59728 33300.00000 0 6056322.203 17246872.509 -17761518.883 10 0 59728 34200.00000 0 5960357.621 19309274.802 -15537085.620 10 0 59728 35100.00000 0 6025830.832 21080439.795 -13010241.247 10 0 59728 36000.00000 0 6210539.303 22515176.261 -10230261.340 10 0 59728 36900.00000 0 6465269.562 23579447.022 -7251315.145 10 0 59728 37800.00000 0 6736096.154 24251647.864 -4131399.858 10 0 59728 38700.00000 0 6966885.127 24523378.935 -931202.761 10 0 59728 39600.00000 0 7101894.888 24399677.897 2287085.628 10 0 59728 40500.00000 0 7088363.462 23898706.926 5460983.562 10 0 59728 41400.00000 0 6878972.230 23050908.653 8528931.189 10 0 59728 42300.00000 0 6434081.942 21897668.325 11431480.914 10 0 59728 43200.00000 0 5723646.789 20489539.927 14112442.165 10 0 59728 44100.00000 0 4728726.262 18884111.794 16519958.958 10 0 59728 45000.00000 0 3442531.669 17143601.799 18607500.263 10 0 59728 45900.00000 0 1870963.706 15332282.795 20334745.359 10 0 59728 46800.00000 0 32618.666 13513845.365 21668348.515 10 0 59728 47700.00000 0 -2041737.174 11748807.001 22582569.746 10 0 59728 48600.00000 0 -4310203.766 10092074.268 23059760.948 10 0 59728 49500.00000 0 -6721252.123 8590757.906 23090699.284 10 0 59728 50400.00000 0 -9215636.696 7282330.155 22674762.181 10 0 59728 51300.00000 0 -11728637.764 6193199.461 21819941.051 10 0 59728 52200.00000 0 -14192542.882 5337760.613 20542693.269 10 0 59728 53100.00000 0 -16539266.398 4717959.052 18867634.708 10 0 59728 54000.00000 0 -18703000.244 4323387.051 16827077.684 10 0 59728 54900.00000 0 -20622787.492 4131907.745 14460421.781 10 0 59728 55800.00000 0 -22244912.657 4110781.268 11813407.807 10 0 59728 56700.00000 0 -23525009.833 4218246.368 8937247.621 10 0 59728 57600.00000 0 -24429800.687 4405491.738 5887645.173 10 0 59728 58500.00000 0 -24938389.146 4618934.688 2723726.508 10 0 59728 59400.00000 0 -25043057.643 4802711.439 -493101.359 10 0 59728 60300.00000 0 -24749530.330 4901273.822 -3700341.043 10 0 59728 61200.00000 0 -24076690.810 4861982.138 -6835621.593 10 0 59728 62100.00000 0 -23055765.012 4637583.457 -9837917.458 10 0 59728 63000.00000 0 -21729002.422 4188468.976 -12648745.122 10 0 59728 63900.00000 0 -20147910.423 3484613.063 -15213313.017 10 0 59728 64800.00000 0 -18371115.585 2507109.783 -17481601.236 10 0 59728 65700.00000 0 -16461941.860 1249239.663 -19409348.846 10 0 59728 66600.00000 0 -14485807.813 -282980.593 -20958928.461 10 0 59728 67500.00000 0 -12507552.844 -2070790.770 -22100090.129 10 0 59728 68400.00000 0 -10588805.304 -4083224.368 -22810559.332 10 0 59728 69300.00000 0 -8785503.697 -6278169.262 -23076476.879 10 0 59728 70200.00000 0 -7145675.445 -8603908.351 -22892671.851 10 0 59728 71100.00000 0 -5707566.578 -11001076.297 -22262762.151 10 0 59728 72000.00000 0 -4498200.724 -13404950.547 -21199080.742 10 0 59728 72900.00000 0 -3532427.228 -15747980.718 -19722429.269 10 0 59728 73800.00000 0 -2812497.335 -17962450.233 -17861664.192 10 0 59728 74700.00000 0 -2328184.820 -19983158.360 -15653124.068 10 0 59728 75600.00000 0 -2057444.153 -21750010.125 -13139909.775 10 0 59728 76500.00000 0 -1967576.394 -23210405.471 -10371032.495 10 0 59728 77400.00000 0 -2016851.542 -24321327.645 -7400446.997 10 0 59728 78300.00000 0 -2156516.614 -25051043.733 -4285990.034 10 0 59728 79200.00000 0 -2333102.691 -25380346.890 -1088245.464 10 0 59728 80100.00000 0 -2490931.648 -25303289.286 2130640.774 10 0 59728 81000.00000 0 -2574715.268 -24827376.546 5308172.038 10 0 59728 81900.00000 0 -2532135.945 -23973217.167 8382714.662 10 0 59728 82800.00000 0 -2316299.494 -22773643.309 11294690.031 10 0 59728 83700.00000 0 -1887956.454 -21272341.387 13987722.138 10 0 59728 84600.00000 0 -1217398.486 -19522051.005 16409718.947 10 0 59728 85500.00000 0 -285950.483 -17582408.462 18513867.494 10 0 59729 0.00000 0 913003.743 -15517525.334 20259524.621 10 0 59729 900.00000 0 2373505.622 -13393401.753 21612988.507 10 0 59729 1800.00000 0 4077035.687 -11275284.163 22548135.282 10 0 59729 2700.00000 0 5993059.123 -9225072.508 23046913.119 10 0 59729 3600.00000 0 8080079.530 -7298885.818 23099683.045 10 0 59729 4500.00000 0 10287158.883 -5544884.534 22705401.775 10 0 59729 5400.00000 0 12555842.052 -4001438.467 21871643.309 10 0 59729 6300.00000 0 14822407.861 -2695714.974 20614458.769 10 0 59729 7200.00000 0 17020355.095 -1642744.861 18958076.591 10 0 59729 8100.00000 0 19083022.123 -845004.049 16934447.815 10 0 59729 9000.00000 0 20946232.897 -292528.041 14582643.827 10 0 59729 9900.00000 0 22550860.348 36445.560 11948116.655 10 0 59729 10800.00000 0 23845201.116 174333.109 9081834.455 10 0 59729 11700.00000 0 24787062.623 162607.047 6039307.391 10 0 59729 12600.00000 0 25345474.726 49810.742 2879521.597 10 0 59729 13500.00000 0 25501953.413 -110730.688 -336199.026 10 0 59729 14400.00000 0 25251262.178 -263407.091 -3545381.544 10 0 59729 15300.00000 0 24601637.589 -352921.746 -6685620.067 10 0 59729 16200.00000 0 23574467.981 -326880.947 -9695795.176 10 0 59729 17100.00000 0 22203437.293 -138263.901 -12517272.191 10 0 59729 18000.00000 0 20533168.864 252333.190 -15095053.905 10 0 59729 18900.00000 0 18617425.328 874775.736 -17378864.219 10 0 59729 19800.00000 0 16516939.789 1747875.482 -19324140.447 10 0 59729 20700.00000 0 14296969.352 2878347.473 -20892913.789 10 0 59729 21600.00000 0 12024673.898 4260285.436 -22054559.952 10 0 59729 22500.00000 0 9766430.500 5875179.574 -22786404.539 10 0 59729 23400.00000 0 7585196.640 7692477.560 -23074170.846 10 0 59729 24300.00000 0 5538033.121 9670666.360 -22912261.068 10 0 59729 25200.00000 0 3673890.683 11758830.246 -22303865.283 10 0 59729 26100.00000 0 2031753.016 13898619.951 -21260896.162 10 0 59729 27000.00000 0 639213.466 16026550.412 -19803750.913 10 0 59729 27900.00000 0 -488455.834 18076530.551 -17960905.410 10 0 59729 28800.00000 0 -1348704.681 19982518.554 -15768349.005 10 0 59729 29700.00000 0 -1951560.343 21681190.867 -13268871.633 10 0 59729 30600.00000 0 -2318946.137 23114512.604 -10511217.901 10 0 59729 31500.00000 0 -2483493.972 24232101.249 -7549125.555 10 0 59729 32400.00000 0 -2486903.381 24993284.564 -4440268.050 10 0 59729 33300.00000 0 -2377918.517 25368766.700 -1245122.737 10 0 59729 34200.00000 0 -2210010.657 25341833.309 1974212.259 10 0 59729 35100.00000 0 -2038865.819 24909046.143 5155228.697 10 0 59729 36000.00000 0 -1919784.952 24080399.298 8236222.365 10 0 59729 36900.00000 0 -1905107.299 22878931.985 11157486.781 10 0 59729 37800.00000 0 -2041766.033 21339815.431 13862463.467 10 0 59729 38700.00000 0 -2369079.158 19508953.319 16298827.077 10 0 59729 39600.00000 0 -2916868.322 17441155.144 18419485.172 10 0 59729 40500.00000 0 -3703984.113 15197959.099 20183474.610 10 0 59729 41400.00000 0 -4737299.246 12845195.090 21556738.681 10 0 59729 42300.00000 0 -6011211.509 10450388.651 22512771.459 10 0 59729 43200.00000 0 -7507677.253 8080112.515 23033118.471 10 0 59729 44100.00000 0 -9196774.540 5797394.220 23107725.249 10 0 59729 45000.00000 0 -11037773.303 3659285.618 22735127.938 10 0 59729 45900.00000 0 -12980669.321 1714693.229 21922482.749 10 0 59729 46800.00000 0 -14968119.859 2557.690 20685433.607 10 0 59729 47700.00000 0 -16937702.278 -1449543.534 19047820.004 10 0 59729 48600.00000 0 -18824403.512 -2626313.291 17041229.649 10 0 59729 49500.00000 0 -20563238.533 -3525134.291 14704403.177 10 0 59729 50400.00000 0 -22091889.997 -4155934.641 12082500.856 10 0 59729 51300.00000 0 -23353259.851 -4540524.972 9226243.833 10 0 59729 52200.00000 0 -24297826.620 -4711434.622 6190944.967 10 0 59729 53100.00000 0 -24885709.422 -4710295.262 3035446.842 10 0 59729 54000.00000 0 -25088351.376 -4585839.599 -179013.388 10 0 59729 54900.00000 0 -24889750.449 -4391599.309 -3389990.802 10 0 59729 55800.00000 0 -24287184.376 -4183399.467 -6535048.004 10 0 59729 56700.00000 0 -23291397.363 -4016755.865 -9552974.944 10 0 59729 57600.00000 0 -21926238.926 -3944286.252 -12384988.790 10 0 59729 58500.00000 0 -20227768.404 -4013246.334 -14975889.403 10 0 59729 59400.00000 0 -18242861.532 -4263296.463 -17275146.841 10 0 59729 60300.00000 0 -16027376.610 -4724595.378 -19237898.553 10 0 59729 61200.00000 0 -13643956.823 -5416303.542 -20825835.690 10 0 59729 62100.00000 0 -11159560.736 -6345561.269 -22007960.380 10 0 59729 63000.00000 0 -8642824.569 -7506986.558 -22761198.469 10 0 59729 63900.00000 0 -6161367.132 -8882715.330 -23070855.222 10 0 59729 64800.00000 0 -3779150.539 -10442983.587 -22930904.814 10 0 59729 65700.00000 0 -1554007.358 -12147227.850 -22344107.831 10 0 59729 66600.00000 0 464562.266 -13945657.993 -21321954.531 10 0 59729 67500.00000 0 2237231.683 -15781236.492 -19884435.187 10 0 59729 68400.00000 0 3736250.699 -17591980.701 -18059642.324 10 0 59729 69300.00000 0 4946352.771 -19313490.954 -15883213.127 10 0 59729 70200.00000 0 5865130.032 -20881597.747 -13397623.525 10 0 59729 71100.00000 0 6502862.456 -22235016.188 -10651348.442 10 0 59729 72000.00000 0 6881810.574 -23317895.682 -7697905.533 10 0 59729 72900.00000 0 7035004.024 -24082157.411 -4594801.975 10 0 59729 73800.00000 0 7004579.466 -24489521.398 -1402405.775 10 0 59729 74700.00000 0 6839740.291 -24513138.268 1817235.397 10 0 59729 75600.00000 0 6594426.281 -24138757.823 5001604.120 10 0 59729 76500.00000 0 6324793.282 -23365386.275 8088927.804 10 0 59729 77400.00000 0 6086610.388 -22205405.693 11019373.996 10 0 59729 78300.00000 0 5932685.116 -20684151.797 13736203.370 10 0 59729 79200.00000 0 5910425.274 -18838968.823 16186858.588 10 0 59729 80100.00000 0 6059639.905 -16717781.798 18323968.748 10 0 59729 81000.00000 0 6410671.255 -14377246.207 20106251.257 10 0 59729 81900.00000 0 6982935.564 -11880552.048 21499295.185 10 0 59729 82800.00000 0 7783933.226 -9294973.122 22476212.395 10 0 59729 83700.00000 0 8808769.419 -6689262.250 23018145.475 10 0 59729 84600.00000 0 10040205.250 -4130998.958 23114623.891 10 0 59729 85500.00000 0 11449237.707 -1683997.914 22763762.392 10 0 59730 0.00000 0 12996185.010 594116.275 21972298.460 10 0 59730 900.00000 0 14632234.327 2654070.471 20755467.491 10 0 59730 1800.00000 0 16301386.835 4456749.616 19136718.756 10 0 59730 2700.00000 0 17942723.614 5974579.020 17147275.199 10 0 59730 3600.00000 0 19492897.554 7192422.752 14825545.162 10 0 59730 4500.00000 0 20888749.538 8107962.479 12216395.503 10 0 59730 5400.00000 0 22069940.515 8731540.885 9370298.585 10 0 59730 6300.00000 0 22981489.924 9085476.080 6342368.059 10 0 59730 7200.00000 0 23576113.989 9202875.299 3191300.917 10 0 59730 8100.00000 0 23816265.171 9125997.386 -21754.606 10 0 59730 9000.00000 0 23675785.875 8904232.655 -3234383.854 10 0 59730 9900.00000 0 23141105.252 8591785.215 -6384120.203 10 0 59730 10800.00000 0 22211926.813 8245155.926 -9409665.217 10 0 59730 11700.00000 0 20901375.862 7920532.959 -12252090.041 10 0 59730 12600.00000 0 19235598.626 7671201.372 -14855993.588 10 0 59730 13500.00000 0 17252828.142 7545082.617 -17170593.870 10 0 59730 14400.00000 0 15001954.779 7582509.670 -19150730.089 10 0 59730 15300.00000 0 12540660.425 7814333.578 -20757754.786 10 0 59730 16200.00000 0 9933194.001 8260443.192 -21960297.797 10 0 59730 17100.00000 0 7247881.265 8928762.226 -22734886.342 10 0 59730 18000.00000 0 4554473.263 9814767.375 -23066408.609 10 0 59730 18900.00000 0 1921444.515 10901548.920 -22948411.496 10 0 59730 19800.00000 0 -586645.920 12160412.054 -22383226.557 10 0 59730 20700.00000 0 -2911620.021 13551993.976 -21381921.749 10 0 59730 21600.00000 0 -5003870.195 15027849.774 -19964080.140 10 0 59730 22500.00000 0 -6824181.440 16532440.106 -18157410.207 10 0 59730 23400.00000 0 -8345110.886 18005436.455 -15997195.849 10 0 59730 24300.00000 0 -9551868.385 19384246.288 -13525597.459 10 0 59730 25200.00000 0 -10442662.986 20606651.096 -10790818.386 10 0 59730 26100.00000 0 -11028502.871 21613445.525 -7846153.984 10 0 59730 27000.00000 0 -11332459.589 22350965.973 -4748942.680 10 0 59730 27900.00000 0 -11388430.087 22773401.878 -1559440.469 10 0 59730 28800.00000 0 -11239451.115 22844792.379 1660358.257 10 0 59730 29700.00000 0 -10935639.398 22540624.639 4847929.813 10 0 59730 30600.00000 0 -10531846.376 21848967.204 7941436.185 10 0 59730 31500.00000 0 -10085127.889 20771091.582 10880921.895 10 0 59730 32400.00000 0 -9652136.466 19321556.891 13609469.649 10 0 59730 33300.00000 0 -9286546.494 17527754.872 16074292.885 10 0 59730 34200.00000 0 -9036620.578 15428935.017 18227744.837 10 0 59730 35100.00000 0 -8943018.881 13074750.923 20028225.869 10 0 59730 36000.00000 0 -9036942.734 10523388.349 21440972.964 10 0 59730 36900.00000 0 -9338689.479 7839352.417 22438717.609 10 0 59730 37800.00000 0 -9856678.377 5091004.835 23002200.926 10 0 59730 38700.00000 0 -10586987.849 2347951.813 23120537.356 10 0 59730 39600.00000 0 -11513423.311 -321610.745 22791420.841 10 0 59730 40500.00000 0 -12608113.194 -2853486.834 22021170.014 10 0 59730 41400.00000 0 -13832609.123 -5189899.452 20824611.534 10 0 59730 42300.00000 0 -15139445.576 -7281640.775 19224803.288 10 0 59730 43200.00000 0 -16474095.470 -9089865.798 17252601.831 10 0 59730 44100.00000 0 -17777241.578 -10587456.165 14946081.059 10 0 59730 45000.00000 0 -18987270.334 -11759898.111 12349811.805 10 0 59730 45900.00000 0 -20042884.858 -12605638.263 9514014.634 10 0 59730 46800.00000 0 -20885728.508 -13135902.362 6493600.674 10 0 59730 47700.00000 0 -21462909.036 -13373984.119 3347117.815 10 0 59730 48600.00000 0 -21729316.926 -13354033.606 135621.747 10 0 59730 49500.00000 0 -21649639.395 -13119395.692 -3078506.792 10 0 59730 50400.00000 0 -21199983.749 -12720568.187 -6232775.575 10 0 59730 51300.00000 0 -20369039.812 -12212865.857 -9265801.303 10 0 59730 52200.00000 0 -19158730.311 -11653889.287 -12118512.469 10 0 59730 53100.00000 0 -17584319.618 -11100906.256 -14735310.167 10 0 59730 54000.00000 0 -15673974.212 -10608257.388 -17065163.175 10 0 59730 54900.00000 0 -13467791.486 -10224897.067 -19062614.837 10 0 59730 55800.00000 0 -11016336.287 -9992175.032 -20688680.959 10 0 59730 56700.00000 0 -8378745.537 -9941953.900 -21911620.348 10 0 59730 57600.00000 0 -5620479.704 -10095143.542 -22707562.199 10 0 59730 58500.00000 0 -2810815.024 -10460715.419 -23060977.540 10 0 59730 59400.00000 0 -20181.311 -11035239.402 -22964985.247 10 0 59730 60300.00000 0 2682543.342 -11802963.288 -22421486.501 10 0 59730 61200.00000 0 5232667.730 -12736431.876 -21441125.107 10 0 59730 62100.00000 0 7572142.600 -13797619.494 -20043074.642 10 0 59730 63000.00000 0 9651733.316 -14939527.822 -18254656.906 10 0 59730 63900.00000 0 11432819.858 -16108181.038 -16110799.609 10 0 59730 64800.00000 0 12888749.920 -17244933.347 -13653344.477 10 0 59730 65700.00000 0 14005689.926 -18288990.700 -10930219.992 10 0 59730 66600.00000 0 14782940.069 -19180039.430 -7994495.787 10 0 59730 67500.00000 0 15232702.407 -19860870.192 -4903338.080 10 0 59730 68400.00000 0 15379314.160 -20279885.931 -1716887.407 10 0 59730 69300.00000 0 15257980.935 -20393387.819 1502918.450 10 0 59730 70200.00000 0 14913065.628 -20167542.811 4693552.670 10 0 59730 71100.00000 0 14396007.255 -19579950.214 7793114.666 10 0 59730 72000.00000 0 13762959.096 -18620741.904 10741528.420 10 0 59730 72900.00000 0 13072246.941 -17293170.622 13481700.742 10 0 59730 73800.00000 0 12381755.101 -15613662.352 15960617.468 10 0 59730 74700.00000 0 11746350.290 -13611331.214 18130357.126 10 0 59730 75600.00000 0 11215451.243 -11326977.441 19949003.715 10 0 59730 76500.00000 0 10830845.334 -8811610.203 21381442.366 10 0 59730 77400.00000 0 10624842.723 -6124556.326 22400023.990 10 0 59730 78300.00000 0 10618844.321 -3331232.541 22985087.639 10 0 59730 79200.00000 0 10822382.579 -500672.282 23125331.785 10 0 59730 80100.00000 0 11232674.612 2297092.154 22818028.296 10 0 59730 81000.00000 0 11834706.173 4993685.639 22069075.536 10 0 59730 81900.00000 0 12601843.261 7524976.562 20892889.569 10 0 59730 82800.00000 0 13496946.606 9833488.223 19312135.080 10 0 59730 83700.00000 0 14473943.558 11870537.061 17357300.262 10 0 59730 84600.00000 0 15479793.041 13598010.346 15066122.502 10 0 59730 85500.00000 0 16456762.697 14989710.216 12482874.473 10 0 59731 0.00000 0 17344923.999 16032208.520 9657523.021 10 0 59731 900.00000 0 18084761.999 16725177.239 6644774.000 10 0 59731 1800.00000 0 18619789.348 17081179.010 3503024.167 10 0 59731 2700.00000 0 18899056.093 17124927.870 293234.385 10 0 59731 3600.00000 0 18879447.593 16892049.190 -2922250.795 10 0 59731 4500.00000 0 18527672.921 16427391.103 -6080915.714 10 0 59731 5400.00000 0 17821858.018 15782958.198 -9121294.248 10 0 59731 6300.00000 0 16752674.299 15015554.673 -11984174.087 10 0 59731 7200.00000 0 15323952.801 14184236.832 -14613760.141 10 0 59731 8100.00000 0 13552755.733 13347683.259 -16958773.363 10 0 59731 9000.00000 0 11468900.185 12561594.773 -18973462.441 10 0 59731 9900.00000 0 9113952.263 11876235.176 -20618507.462 10 0 59731 10800.00000 0 6539732.354 11334217.948 -21861797.074 10 0 59731 11700.00000 0 3806393.147 10968633.515 -22679063.178 10 0 59731 12600.00000 0 980150.309 10801597.182 -23054360.235 10 0 59731 13500.00000 0 -1869239.585 10843279.779 -22980379.512 10 0 59731 14400.00000 0 -4671148.530 11091462.363 -22458591.997 10 0 59731 15300.00000 0 -7356782.335 11531633.876 -21499217.219 10 0 59731 16200.00000 0 -9861808.631 12137627.392 -20121018.802 10 0 59731 17100.00000 0 -12128798.008 12872767.577 -18350931.030 10 0 59731 18000.00000 0 -14109376.535 13691480.102 -16223524.219 10 0 59731 18900.00000 0 -15766000.399 14541294.104 -13780319.901 10 0 59731 19800.00000 0 -17073279.495 15365152.023 -11068969.879 10 0 59731 20700.00000 0 -18018795.941 16103928.138 -8142316.051 10 0 59731 21600.00000 0 -18603385.104 16699048.427 -5057350.241 10 0 59731 22500.00000 0 -18840869.498 17095100.194 -1874095.227 10 0 59731 23400.00000 0 -18757259.043 17242320.682 1345570.215 10 0 59731 24300.00000 0 -18389453.735 17098859.303 4539118.608 10 0 59731 25200.00000 0 -17783505.514 16632718.053 7644589.329 10 0 59731 26100.00000 0 -16992514.432 15823288.630 10601788.414 10 0 59731 27000.00000 0 -16074249.150 14662422.029 13353449.386 10 0 59731 27900.00000 0 -15088592.782 13154986.211 15846333.058 10 0 59731 28800.00000 0 -14094921.811 11318888.979 18032245.761 10 0 59731 29700.00000 0 -13149527.940 9184565.416 19868957.491 10 0 59731 30600.00000 0 -12303190.305 6793951.210 21321003.677 10 0 59731 31500.00000 0 -11598998.732 4198984.322 22360356.528 10 0 59731 32400.00000 0 -11070517.890 1459696.398 22966954.573 10 0 59731 33300.00000 0 -10740367.876 -1358028.175 23129081.469 10 0 59731 34200.00000 0 -10619279.493 -4184934.263 22843587.740 10 0 59731 35100.00000 0 -10705662.984 -6951018.185 22115951.745 10 0 59731 36000.00000 0 -10985707.931 -9588183.641 20960178.730 10 0 59731 36900.00000 0 -11434010.385 -12032823.291 19398539.456 10 0 59731 37800.00000 0 -12014701.621 -14228220.860 17461152.527 10 0 59731 38700.00000 0 -12683032.290 -16126675.597 15185417.131 10 0 59731 39600.00000 0 -13387346.772 -17691261.751 12615305.655 10 0 59731 40500.00000 0 -14071366.109 -18897150.409 9800528.203 10 0 59731 41400.00000 0 -14676684.596 -19732438.638 6795583.577 10 0 59731 42300.00000 0 -15145375.684 -20198450.861 3658713.873 10 0 59731 43200.00000 0 -15422597.561 -20309499.298 450781.916 10 0 59731 44100.00000 0 -15459088.130 -20092112.725 -2765907.244 10 0 59731 45000.00000 0 -15213443.088 -19583765.241 -5928817.909 10 0 59731 45900.00000 0 -14654079.376 -18831157.982 -8976404.543 10 0 59731 46800.00000 0 -13760799.094 -17888125.912 -11849317.405 10 0 59731 47700.00000 0 -12525885.625 -16813257.987 -14491568.487 10 0 59731 48600.00000 0 -10954683.312 -15667331.527 -16851633.976 10 0 59731 49500.00000 0 -9065633.901 -14510669.735 -18883470.655 10 0 59731 50400.00000 0 -6889766.118 -13400534.824 -20547425.236 10 0 59731 51300.00000 0 -4469657.984 -12388667.765 -21811018.024 10 0 59731 52200.00000 0 -1857913.960 -11519079.417 -22649584.864 10 0 59731 53100.00000 0 884780.168 -10826187.112 -23046764.256 10 0 59731 54000.00000 0 3691943.911 -10333375.833 -22994819.845 10 0 59731 54900.00000 0 6493834.883 -10052044.988 -22494791.826 10 0 59731 55800.00000 0 9220121.900 -9981180.912 -21556474.334 10 0 59731 56700.00000 0 11802586.688 -10107472.726 -20198219.447 10 0 59731 57600.00000 0 14177741.331 -10405965.901 -18446571.931 10 0 59731 58500.00000 0 16289252.082 -10841224.941 -16335742.315 10 0 59731 59400.00000 0 18090068.607 -11368954.838 -13906929.184 10 0 59731 60300.00000 0 19544170.299 -11938011.437 -11207504.572 10 0 59731 61200.00000 0 20627857.492 -12492714.369 -8290079.242 10 0 59731 62100.00000 0 21330535.007 -12975363.449 -5211466.977 10 0 59731 63000.00000 0 21654956.940 -13328850.991 -2031568.995 10 0 59731 63900.00000 0 21616924.465 -13499258.690 1187798.773 10 0 59731 64800.00000 0 21244451.592 -13438328.733 4384111.935 10 0 59731 65700.00000 0 20576436.122 -13105704.482 7495353.348 10 0 59731 66600.00000 0 19660893.663 -12470846.216 10461214.259 10 0 59731 67500.00000 0 18552830.634 -11514541.493 13224257.616 10 0 59731 68400.00000 0 17311846.718 -10229946.976 15731021.416 10 0 59731 69300.00000 0 15999568.101 -8623118.417 17933041.446 10 0 59731 70200.00000 0 14677019.125 -6713006.908 19787774.817 10 0 59731 71100.00000 0 13402041.924 -4530921.527 21259407.846 10 0 59731 72000.00000 0 12226871.071 -2119480.571 22319534.130 10 0 59731 72900.00000 0 11195963.288 468905.775 22947691.303 10 0 59731 73800.00000 0 10344171.410 3173959.471 23131747.399 10 0 59731 74700.00000 0 9695337.467 5929787.023 22868130.402 10 0 59731 75600.00000 0 9261362.395 8667368.848 22161897.115 10 0 59731 76500.00000 0 9041790.382 11317184.484 21026640.114 10 0 59731 77400.00000 0 9023924.873 13811866.914 19484234.133 10 0 59731 78300.00000 0 9183471.447 16088777.885 17564425.877 10 0 59731 79200.00000 0 9485681.214 18092398.973 15304273.875 10 0 59731 80100.00000 0 9886947.655 19776440.134 12747447.650 10 0 59731 81000.00000 0 10336790.882 21105578.656 9943398.164 10 0 59731 81900.00000 0 10780146.870 22056756.151 6946413.950 10 0 59731 82800.00000 0 11159866.061 22619979.007 3814579.957 10 0 59731 83700.00000 0 11419316.347 22798588.148 608658.280 10 0 59731 84600.00000 0 11504980.465 22608985.854 -2609088.149 10 0 59731 85500.00000 0 11368937.383 22079830.144 -5776106.045 99